STARLINK-3990 (52626 NORAD) Tracking and Keplerian Element Data
This shows tracking and keplerian element data for the satellite.
Feedback or suggestion? Click here.
Element | Value |
Catalog | 52626 |
Name | STARLINK-3990 |
Epoch Orbit | 130 |
Epoch Day | 167.08334491 |
Epoch Year | 2022 |
RAAN | 280.0159 |
Inclination | 53.2135 |
Eccentricity | 0.0001553 |
Argument of Perigee | 24.8037 |
Mean Anonmoly | 5.805 |
Mean Motion | 15.73208849 |
Decay Rate | 0.00073101 |
L1 | 1 52626U 22052AE 22167.08334491 .00073101 00000+0 52054-3 0 9992 |
L2 | 2 52626 53.2135 280.0159 0001553 24.8037 5.8050 15.73208849 1304 |
Live tracking and technical data element details for STARLINK-3990 (NORAD 52626). STARLINK-3990 can be tracked NOW for your location showing map with azimuth and elevation plus other details from your city location.
Track the satellite on the map from your city or location and see movement details for azimuth, elevation, latitude, longitude, range, height, and movement on the map or in text.
IsCatalogInMostPopularTable: catalog: 52626, numindb: 1
Update: records affected: 1
GetName: 52626 STARLINK-3990
Hit Count: updated at: Mon, 27 Jun 2022 06:33:17 GMT